User: anonymous   Login
Location: Unspecified
(0.0000°N, 0.0000°E)
Time: 12:28:21
(UTC+02:00)
Language:

Helios 1A Rocket - Orbit

View from above orbital plane
View from above orbital plane
View from above satellite
View from above satellite

Ground track
Ground track

The orbit data is extracted from the following two-line orbital elements,

1 23608U 95033D   16270.16414541  .00000907  00000-0  86691-4 0  9991
2 23608  98.2102 183.4423 0018029  48.4848 311.7915 14.95882230148286
Epoch (UTC): 26 September 2016 03:56:22
Eccentricity: 0.0018029
inclination: 98.2102°
perigee height: 567 km
apogee height: 592 km
right ascension of ascending node: 183.4423°
argument of perigee: 48.4848°
revolutions per day: 14.95882230
mean anomaly at epoch: 311.7915°
orbit number at epoch: 14828

The dashed part of the orbit path shows where the satellite is in the earth's shadow,  

DLR